Time,TemperatureF,DewpointF,PressureIn,WindDirection,WindDirectionDegrees,WindSpeedMPH,WindSpeedGustMPH,Humidity,HourlyPrecipIn,Conditions,Clouds,dailyrainin,SoftwareType,DateUTC
2013-07-25 00:02:00,66.0,58.0,30.00,South,189,0.0,-999.0,75,-99.99,,,-99.99,,2013-07-25 05:02:00,
2013-07-25 00:12:00,66.0,58.0,30.00,South,189,1.0,-999.0,75,-99.99,,,-99.99,,2013-07-25 05:12:00,
2013-07-25 00:22:00,66.0,57.0,30.00,SSW,198,1.0,-999.0,74,-99.99,,,-99.99,,2013-07-25 05:22:00,
2013-07-25 00:32:00,66.0,57.0,30.00,SSW,198,1.0,-999.0,74,-99.99,,,-99.99,,2013-07-25 05:32:00,
2013-07-25 00:43:00,66.0,57.0,30.01,SSW,199,1.0,-999.0,73,-99.99,,,-99.99,,2013-07-25 05:43:00,
2013-07-25 00:52:00,66.0,57.0,30.01,SSW,198,1.0,-999.0,72,-99.99,,,-99.99,,2013-07-25 05:52:00,
2013-07-25 01:02:00,66.0,57.0,30.01,SSW,198,1.0,-999.0,72,-99.99,,,-99.99,,2013-07-25 06:02:00,
2013-07-25 01:12:00,66.0,57.0,30.01,SSW,198,0.0,-999.0,74,-99.99,,,-99.99,,2013-07-25 06:12:00,
2013-07-25 01:22:00,64.0,57.0,30.01,SSW,198,0.0,-999.0,77,-99.99,,,-99.99,,2013-07-25 06:22:00,
2013-07-25 01:32:00,64.0,57.0,30.01,SSW,198,0.0,-999.0,77,-99.99,,,-99.99,,2013-07-25 06:32:00,
2013-07-25 01:42:00,64.0,57.0,30.00,SSW,198,0.0,-999.0,78,-99.99,,,-99.99,,2013-07-25 06:42:00,
2013-07-25 01:52:00,63.0,57.0,29.99,SSW,197,0.0,-999.0,80,-99.99,,,-99.99,,2013-07-25 06:52:00,
2013-07-25 02:02:00,63.0,57.0,29.99,SSW,197,0.0,-999.0,80,-99.99,,,-99.99,,2013-07-25 07:02:00,
2013-07-25 02:12:00,62.0,56.0,30.00,SSW,197,0.0,-999.0,82,-99.99,,,-99.99,,2013-07-25 07:12:00,
2013-07-25 02:22:00,63.0,57.0,30.00,SSW,197,1.0,-999.0,81,-99.99,,,-99.99,,2013-07-25 07:22:00,
2013-07-25 02:33:00,63.0,57.0,30.00,SSW,197,1.0,-999.0,81,-99.99,,,-99.99,,2013-07-25 07:33:00,
2013-07-25 02:43:00,64.0,57.0,30.01,SSW,197,2.0,-999.0,78,-99.99,,,-99.99,,2013-07-25 07:43:00,
2013-07-25 02:53:00,63.0,56.0,30.01,SSW,198,1.0,-999.0,78,-99.99,,,-99.99,,2013-07-25 07:53:00,
2013-07-25 03:02:00,63.0,56.0,30.01,SSW,198,1.0,-999.0,78,-99.99,,,-99.99,,2013-07-25 08:02:00,
2013-07-25 03:12:00,63.0,56.0,30.01,SSW,200,2.0,-999.0,79,-99.99,,,-99.99,,2013-07-25 08:12:00,
2013-07-25 03:22:00,63.0,57.0,30.01,SSW,200,1.0,-999.0,80,-99.99,,,-99.99,,2013-07-25 08:22:00,
2013-07-25 03:32:00,63.0,57.0,30.01,SSW,200,1.0,-999.0,80,-99.99,,,-99.99,,2013-07-25 08:32:00,
2013-07-25 03:44:00,62.0,56.0,30.01,SSW,200,1.0,-999.0,80,-99.99,,,-99.99,,2013-07-25 08:44:00,
2013-07-25 03:52:00,62.0,56.0,30.00,SSW,207,2.0,-999.0,82,-99.99,,,-99.99,,2013-07-25 08:52:00,
2013-07-25 04:02:00,62.0,56.0,30.00,SSW,207,2.0,-999.0,82,-99.99,,,-99.99,,2013-07-25 09:02:00,
2013-07-25 04:12:00,62.0,56.0,29.99,SSW,202,2.0,-999.0,82,-99.99,,,-99.99,,2013-07-25 09:12:00,
2013-07-25 04:22:00,62.0,56.0,29.99,SSW,213,2.0,-999.0,82,-99.99,,,-99.99,,2013-07-25 09:22:00,
2013-07-25 04:33:00,62.0,56.0,29.99,SSW,213,2.0,-999.0,82,-99.99,,,-99.99,,2013-07-25 09:33:00,
2013-07-25 04:43:00,62.0,57.0,30.00,SSW,213,1.0,-999.0,83,-99.99,,,-99.99,,2013-07-25 09:43:00,
2013-07-25 04:52:00,62.0,57.0,30.00,SSW,213,1.0,-999.0,83,-99.99,,,-99.99,,2013-07-25 09:52:00,
2013-07-25 05:02:00,62.0,57.0,30.00,SSW,213,1.0,-999.0,83,-99.99,,,-99.99,,2013-07-25 10:02:00,
2013-07-25 05:12:00,62.0,57.0,30.00,SSW,212,1.0,-999.0,83,-99.99,,,-99.99,,2013-07-25 10:12:00,
2013-07-25 05:22:00,61.0,56.0,30.01,SSW,212,0.0,-999.0,84,-99.99,,,-99.99,,2013-07-25 10:22:00,
2013-07-25 05:32:00,61.0,56.0,30.01,SSW,212,0.0,-999.0,84,-99.99,,,-99.99,,2013-07-25 10:32:00,
2013-07-25 05:42:00,60.0,55.0,30.00,SSW,212,0.0,-999.0,85,-99.99,,,-99.99,,2013-07-25 10:42:00,
2013-07-25 05:53:00,60.0,56.0,30.01,SSW,212,1.0,-999.0,86,-99.99,,,-99.99,,2013-07-25 10:53:00,
2013-07-25 06:02:00,60.0,56.0,30.01,SSW,212,1.0,-999.0,86,-99.99,,,-99.99,,2013-07-25 11:02:00,
2013-07-25 06:12:00,60.0,56.0,30.01,SSW,211,0.0,-999.0,86,-99.99,,,-99.99,,2013-07-25 11:12:00,
2013-07-25 06:22:00,59.0,55.0,30.00,SSW,211,0.0,-999.0,88,-99.99,,,-99.99,,2013-07-25 11:22:00,
2013-07-25 06:32:00,59.0,55.0,30.00,SSW,211,0.0,-999.0,88,-99.99,,,-99.99,,2013-07-25 11:32:00,
2013-07-25 06:43:00,59.0,55.0,29.99,SSW,207,0.0,-999.0,88,-99.99,,,-99.99,,2013-07-25 11:43:00,
2013-07-25 06:52:00,60.0,57.0,30.00,SSW,207,0.0,-999.0,89,-99.99,,,-99.99,,2013-07-25 11:52:00,
2013-07-25 07:02:00,60.0,57.0,30.00,SSW,207,0.0,-999.0,89,-99.99,,,-99.99,,2013-07-25 12:02:00,
2013-07-25 07:12:00,61.0,57.0,30.00,SSW,199,0.0,-999.0,87,-99.99,,,-99.99,,2013-07-25 12:12:00,
2013-07-25 07:22:00,61.0,57.0,30.01,SSW,198,0.0,-999.0,87,-99.99,,,-99.99,,2013-07-25 12:22:00,
2013-07-25 07:32:00,61.0,57.0,30.01,SSW,198,0.0,-999.0,87,-99.99,,,-99.99,,2013-07-25 12:32:00,
2013-07-25 07:45:00,62.0,58.0,30.01,SSW,211,1.0,-999.0,86,-99.99,,,-99.99,,2013-07-25 12:45:00,
2013-07-25 07:53:00,64.0,59.0,30.02,SSW,207,4.0,-999.0,84,-99.99,,,-99.99,,2013-07-25 12:53:00,
2013-07-25 08:02:00,64.0,59.0,30.02,SSW,207,4.0,-999.0,84,-99.99,,,-99.99,,2013-07-25 13:02:00,
2013-07-25 08:12:00,65.0,59.0,30.01,SSW,210,4.0,-999.0,82,-99.99,,,-99.99,,2013-07-25 13:12:00,
2013-07-25 08:22:00,66.0,60.0,30.02,SSW,209,4.0,-999.0,81,-99.99,,,-99.99,,2013-07-25 13:22:00,
2013-07-25 08:33:00,66.0,60.0,30.02,SSW,209,4.0,-999.0,81,-99.99,,,-99.99,,2013-07-25 13:33:00,
2013-07-25 08:43:00,67.0,61.0,30.01,SSW,202,4.0,-999.0,80,-99.99,,,-99.99,,2013-07-25 13:43:00,
2013-07-25 08:52:00,68.0,61.0,30.01,SW,228,3.0,-999.0,79,-99.99,,,-99.99,,2013-07-25 13:52:00,
2013-07-25 09:02:00,68.0,61.0,30.01,SW,228,3.0,-999.0,79,-99.99,,,-99.99,,2013-07-25 14:02:00,
2013-07-25 09:12:00,70.0,62.0,30.02,SSW,210,3.0,-999.0,76,-99.99,,,-99.99,,2013-07-25 14:12:00,
2013-07-25 09:22:00,71.0,63.0,30.01,SW,234,3.0,-999.0,75,-99.99,,,-99.99,,2013-07-25 14:22:00,
2013-07-25 09:33:00,71.0,63.0,30.01,SW,234,3.0,-999.0,75,-99.99,,,-99.99,,2013-07-25 14:33:00,
2013-07-25 09:43:00,73.0,63.0,30.01,WSW,250,4.0,-999.0,72,-99.99,,,-99.99,,2013-07-25 14:43:00,
2013-07-25 09:53:00,73.0,63.0,30.01,SW,233,6.0,-999.0,71,-99.99,,,-99.99,,2013-07-25 14:53:00,
2013-07-25 10:02:00,73.0,63.0,30.01,SW,233,6.0,-999.0,71,-99.99,,,-99.99,,2013-07-25 15:02:00,
2013-07-25 10:12:00,74.0,63.0,30.01,WSW,241,6.0,-999.0,69,-99.99,,,-99.99,,2013-07-25 15:12:00,
2013-07-25 10:22:00,75.0,64.0,30.01,West,266,5.0,-999.0,68,-99.99,,,-99.99,,2013-07-25 15:22:00,
2013-07-25 10:32:00,75.0,64.0,30.01,West,266,5.0,-999.0,68,-99.99,,,-99.99,,2013-07-25 15:32:00,
2013-07-25 10:44:00,76.0,65.0,30.01,WSW,255,5.0,-999.0,68,-99.99,,,-99.99,,2013-07-25 15:44:00,
2013-07-25 10:52:00,76.0,64.0,30.01,West,271,8.0,-999.0,66,-99.99,,,-99.99,,2013-07-25 15:52:00,
2013-07-25 11:02:00,76.0,64.0,30.01,West,271,8.0,-999.0,66,-99.99,,,-99.99,,2013-07-25 16:02:00,
2013-07-25 11:12:00,77.0,65.0,30.01,SSW,198,6.0,-999.0,67,-99.99,,,-99.99,,2013-07-25 16:12:00,
2013-07-25 11:22:00,77.0,64.0,30.01,WSW,258,8.0,-999.0,65,-99.99,,,-99.99,,2013-07-25 16:22:00,
2013-07-25 11:33:00,77.0,64.0,30.01,WSW,258,8.0,-999.0,65,-99.99,,,-99.99,,2013-07-25 16:33:00,
2013-07-25 11:45:00,78.0,64.0,30.02,WSW,252,6.0,-999.0,63,-99.99,,,-99.99,,2013-07-25 16:45:00,
2013-07-25 11:53:00,79.0,65.0,30.01,West,273,6.0,-999.0,62,-99.99,,,-99.99,,2013-07-25 16:53:00,
2013-07-25 12:03:00,79.0,65.0,30.01,West,273,6.0,-999.0,62,-99.99,,,-99.99,,2013-07-25 17:03:00,
2013-07-25 12:12:00,80.0,65.0,30.01,SW,221,5.0,-999.0,60,-99.99,,,-99.99,,2013-07-25 17:12:00,
2013-07-25 12:22:00,81.0,64.0,30.00,SSW,207,6.0,-999.0,57,-99.99,,,-99.99,,2013-07-25 17:22:00,
2013-07-25 12:32:00,81.0,64.0,30.00,SSW,207,6.0,-999.0,57,-99.99,,,-99.99,,2013-07-25 17:32:00,
2013-07-25 12:43:00,82.0,65.0,30.00,SW,229,5.0,-999.0,57,-99.99,,,-99.99,,2013-07-25 17:43:00,
2013-07-25 12:53:00,81.0,64.0,30.00,West,265,7.0,-999.0,56,-99.99,,,-99.99,,2013-07-25 17:53:00,
2013-07-25 13:02:00,81.0,64.0,30.00,West,265,7.0,-999.0,56,-99.99,,,-99.99,,2013-07-25 18:02:00,
2013-07-25 13:12:00,82.0,63.0,29.99,SW,217,6.0,-999.0,52,-99.99,,,-99.99,,2013-07-25 18:12:00,
2013-07-25 13:22:00,83.0,63.0,29.99,SW,221,5.0,-999.0,51,-99.99,,,-99.99,,2013-07-25 18:22:00,
2013-07-25 13:33:00,83.0,63.0,29.99,SW,221,5.0,-999.0,51,-99.99,,,-99.99,,2013-07-25 18:33:00,
2013-07-25 13:43:00,83.0,61.0,29.98,SSW,202,5.0,-999.0,48,-99.99,,,-99.99,,2013-07-25 18:43:00,
2013-07-25 13:52:00,83.0,64.0,29.98,SSW,200,5.0,-999.0,52,-99.99,,,-99.99,,2013-07-25 18:52:00,
2013-07-25 14:02:00,83.0,64.0,29.98,SSW,200,5.0,-999.0,52,-99.99,,,-99.99,,2013-07-25 19:02:00,
2013-07-25 14:12:00,83.0,62.0,29.97,SW,234,5.0,-999.0,49,-99.99,,,-99.99,,2013-07-25 19:12:00,
2013-07-25 14:22:00,83.0,62.0,29.97,WSW,238,6.0,-999.0,50,-99.99,,,-99.99,,2013-07-25 19:22:00,
2013-07-25 14:33:00,83.0,62.0,29.97,WSW,238,6.0,-999.0,50,-99.99,,,-99.99,,2013-07-25 19:33:00,
2013-07-25 14:43:00,83.0,62.0,29.96,SW,219,7.0,-999.0,49,-99.99,,,-99.99,,2013-07-25 19:43:00,
2013-07-25 14:52:00,83.0,63.0,29.95,SSW,209,5.0,-999.0,51,-99.99,,,-99.99,,2013-07-25 19:52:00,
2013-07-25 15:02:00,83.0,63.0,29.95,SSW,209,5.0,-999.0,51,-99.99,,,-99.99,,2013-07-25 20:02:00,
2013-07-25 15:12:00,84.0,62.0,29.94,SW,225,6.0,-999.0,48,-99.99,,,-99.99,,2013-07-25 20:12:00,
2013-07-25 15:22:00,84.0,62.0,29.94,SE,140,7.0,-999.0,48,-99.99,,,-99.99,,2013-07-25 20:22:00,
2013-07-25 15:32:00,84.0,62.0,29.94,SE,140,7.0,-999.0,48,-99.99,,,-99.99,,2013-07-25 20:32:00,
2013-07-25 15:43:00,84.0,64.0,29.94,WSW,252,6.0,-999.0,51,-99.99,,,-99.99,,2013-07-25 20:43:00,
2013-07-25 15:53:00,85.0,62.0,29.94,SSW,211,7.0,-999.0,47,-99.99,,,-99.99,,2013-07-25 20:53:00,
2013-07-25 16:03:00,85.0,62.0,29.94,SSW,211,7.0,-999.0,47,-99.99,,,-99.99,,2013-07-25 21:03:00,
2013-07-25 16:12:00,84.0,63.0,29.94,SSW,205,7.0,-999.0,50,-99.99,,,-99.99,,2013-07-25 21:12:00,
2013-07-25 16:22:00,83.0,63.0,29.94,SSW,209,5.0,-999.0,51,-99.99,,,-99.99,,2013-07-25 21:22:00,
2013-07-25 16:32:00,83.0,63.0,29.94,SSW,209,5.0,-999.0,51,-99.99,,,-99.99,,2013-07-25 21:32:00,
2013-07-25 16:44:00,84.0,64.0,29.94,SSW,199,5.0,-999.0,51,-99.99,,,-99.99,,2013-07-25 21:44:00,
2013-07-25 16:52:00,85.0,63.0,29.93,SSW,207,5.0,-999.0,48,-99.99,,,-99.99,,2013-07-25 21:52:00,
2013-07-25 17:02:00,85.0,63.0,29.93,SSW,207,5.0,-999.0,48,-99.99,,,-99.99,,2013-07-25 22:02:00,
2013-07-25 17:12:00,85.0,62.0,29.93,SSW,206,6.0,-999.0,46,-99.99,,,-99.99,,2013-07-25 22:12:00,
2013-07-25 17:22:00,85.0,62.0,29.93,South,178,5.0,-999.0,46,-99.99,,,-99.99,,2013-07-25 22:22:00,
2013-07-25 17:32:00,85.0,62.0,29.93,South,178,5.0,-999.0,46,-99.99,,,-99.99,,2013-07-25 22:32:00,
2013-07-25 17:43:00,84.0,62.0,29.93,SSW,200,6.0,-999.0,48,-99.99,,,-99.99,,2013-07-25 22:43:00,
2013-07-25 17:52:00,84.0,62.0,29.92,ENE,74,4.0,-999.0,48,-99.99,,,-99.99,,2013-07-25 22:52:00,
2013-07-25 18:02:00,84.0,62.0,29.92,ENE,74,4.0,-999.0,48,-99.99,,,-99.99,,2013-07-25 23:02:00,
2013-07-25 18:12:00,84.0,63.0,29.92,South,188,3.0,-999.0,50,-99.99,,,-99.99,,2013-07-25 23:12:00,
2013-07-25 18:22:00,84.0,62.0,29.91,East,94,4.0,-999.0,48,-99.99,,,-99.99,,2013-07-25 23:22:00,
2013-07-25 18:32:00,84.0,62.0,29.91,East,94,4.0,-999.0,48,-99.99,,,-99.99,,2013-07-25 23:32:00,
2013-07-25 18:43:00,82.0,61.0,29.89,ENE,69,4.0,-999.0,49,-99.99,,,-99.99,,2013-07-25 23:43:00,
2013-07-25 18:52:00,81.0,62.0,29.89,SW,223,3.0,-999.0,52,-99.99,,,-99.99,,2013-07-25 23:52:00,
2013-07-25 19:02:00,81.0,62.0,29.89,SW,223,3.0,-999.0,52,-99.99,,,-99.99,,2013-07-26 00:02:00,
2013-07-25 19:12:00,79.0,65.0,29.92,WSW,248,3.0,-999.0,62,-99.99,,,-99.99,,2013-07-26 00:12:00,
2013-07-25 19:33:00,73.0,65.0,29.90,ENE,74,4.0,-999.0,77,-99.99,,,-99.99,,2013-07-26 00:33:00,
2013-07-25 19:43:00,69.0,64.0,29.92,East,80,5.0,-999.0,83,-99.99,,,-99.99,,2013-07-26 00:43:00,
2013-07-25 19:52:00,67.0,64.0,29.90,East,90,11.0,-999.0,90,-99.99,,,-99.99,,2013-07-26 00:52:00,
2013-07-25 20:02:00,67.0,64.0,29.90,East,90,11.0,-999.0,90,-99.99,,,-99.99,,2013-07-26 01:02:00,
2013-07-25 20:12:00,67.0,62.0,29.98,West,280,16.0,-999.0,85,-99.99,,,-99.99,,2013-07-26 01:12:00,
2013-07-25 20:22:00,64.0,62.0,29.95,NNE,22,14.0,-999.0,92,-99.99,,,-99.99,,2013-07-26 01:22:00,
2013-07-25 20:32:00,64.0,62.0,29.95,NNE,22,14.0,-999.0,92,-99.99,,,-99.99,,2013-07-26 01:32:00,
2013-07-25 20:43:00,63.0,61.0,29.97,NNW,348,8.0,-999.0,93,-99.99,,,-99.99,,2013-07-26 01:43:00,
2013-07-25 20:52:00,63.0,61.0,29.97,NE,42,8.0,-999.0,94,-99.99,,,-99.99,,2013-07-26 01:52:00,
2013-07-25 21:02:00,63.0,61.0,29.97,NE,42,8.0,-999.0,94,-99.99,,,-99.99,,2013-07-26 02:02:00,
2013-07-25 21:12:00,63.0,62.0,29.96,ENE,69,8.0,-999.0,95,-99.99,,,-99.99,,2013-07-26 02:12:00,
2013-07-25 21:22:00,64.0,63.0,29.96,East,82,4.0,-999.0,95,-99.99,,,-99.99,,2013-07-26 02:22:00,
2013-07-25 21:32:00,64.0,63.0,29.96,East,82,4.0,-999.0,95,-99.99,,,-99.99,,2013-07-26 02:32:00,
2013-07-25 21:43:00,64.0,63.0,29.97,ESE,119,4.0,-999.0,95,-99.99,,,-99.99,,2013-07-26 02:43:00,
2013-07-25 21:52:00,64.0,63.0,29.97,SE,137,2.0,-999.0,95,-99.99,,,-99.99,,2013-07-26 02:52:00,
2013-07-25 22:02:00,64.0,63.0,29.97,SE,137,2.0,-999.0,95,-99.99,,,-99.99,,2013-07-26 03:02:00,
2013-07-25 22:12:00,64.0,63.0,29.97,SE,135,0.0,-999.0,95,-99.99,,,-99.99,,2013-07-26 03:12:00,
2013-07-25 22:22:00,64.0,63.0,29.98,SE,134,3.0,-999.0,96,-99.99,,,-99.99,,2013-07-26 03:22:00,
2013-07-25 22:32:00,64.0,63.0,29.98,SE,134,3.0,-999.0,96,-99.99,,,-99.99,,2013-07-26 03:32:00,
2013-07-25 22:43:00,65.0,64.0,29.98,SE,139,5.0,-999.0,96,-99.99,,,-99.99,,2013-07-26 03:43:00,
2013-07-25 22:53:00,65.0,64.0,29.98,SE,145,3.0,-999.0,96,-99.99,,,-99.99,,2013-07-26 03:53:00,
2013-07-25 23:02:00,65.0,64.0,29.98,SE,145,3.0,-999.0,96,-99.99,,,-99.99,,2013-07-26 04:02:00,
2013-07-25 23:12:00,65.0,64.0,29.98,SE,138,4.0,-999.0,96,-99.99,,,-99.99,,2013-07-26 04:12:00,
2013-07-25 23:22:00,65.0,64.0,29.98,SE,126,3.0,-999.0,96,-99.99,,,-99.99,,2013-07-26 04:22:00,
2013-07-25 23:32:00,65.0,64.0,29.98,SE,126,3.0,-999.0,96,-99.99,,,-99.99,,2013-07-26 04:32:00,
2013-07-25 23:42:00,65.0,64.0,29.98,East,96,1.0,-999.0,96,-99.99,,,-99.99,,2013-07-26 04:42:00,
2013-07-25 23:53:00,65.0,64.0,29.99,NNE,22,2.0,-999.0,96,-99.99,,,-99.99,,2013-07-26 04:53:00,